GSAT-11

Last updated on Sun Oct 06 2024 00:02:41 GMT+0000 (Coordinated Universal Time)

1 43824U 18100B 24279.55557593 -.00000067 00000+0 00000+0 0 9991 2 43824 0.0121 210.7227 0005097 275.0606 162.9234 1.00271790 21271
UTC large
Height (km)
Speed (km/s)
/
Latitude / Longitude
Inclination (degrees)
Orbital Period (minutes)
Azimuth
Elevation
Range (km)
Doppler Factor

Next 0 passes for location: London (51.5072 / 0.1276)

Sorry there are no passes over London.